Regional Weather Roundup
Issued by NWS Grand Forks, ND

Home | Current Version | Previous Version | Graphics & Text | Print | Product List | Glossary On
Versions: 1 2 3 4 5 6 7 8 9 10 11 12 13 14 15 16 17 18 19 20 21 22 23 24 25 26 27 28 29 30 31 32 33 34 35 36 37 38 39 40 41 42 43 44 45 46 47 48 49 50
778
ASUS43 KFGF 160810
RWRFGF
PRAIRIE TO PINES  WEATHER ROUNDUP
NATIONAL WEATHER SERVICE EASTERN NORTH DAKOTA/GRAND FORKS ND
200 AM CST SAT DEC 16 2017

 **SATELLITE DATA USED TO AUGMENT SKY COVER AT AUTOMATED STATIONS**
 *****  WEATHER ACROSS EASTERN NORTH DAKOTA  *****

CITY           SKY/WX    TMP DP  RH WIND       PRES   REMARKS
GRAND FORKS    CLOUDY    21  18  88 E8        29.68R WCI  11
GRAND FRKS AFB CLOUDY    20  18  89 E8        29.67R WCI  11
GRAND FRKS NWS   N/A     19 N/A N/A SE9         N/A  WCI   9
DEVILS LAKE    CLOUDY    22  21  96 SE8       29.62R WCI  12
FARGO          FAIR      28  25  88 E5        29.62R WCI  23
WAHPETON ARPT  PTSUNNY   28  27  93 E6        29.61S WCI  22
$$

 ***** WEATHER ACROSS CENTRAL AND WESTERN NORTH DAKOTA  *****

CITY           SKY/WX    TMP DP  RH WIND       PRES   REMARKS
BISMARCK       LGT RAIN  39  37  92 NW12      29.67R
MINOT          CLOUDY    40  34  79 W16       29.62R
JAMESTOWN      CLOUDY    35  30  82 W6        29.59R
MINOT AFB      CLOUDY    38  33  83 NW16      29.60R
GARRISON         N/A     37  35  92 NW13      29.64R
WILLISTON        N/A    N/A N/A N/A MISG      29.72R
DICKINSON      CLOUDY    36  30  79 NW14      29.68R
HETTINGER      MOCLDY    39  27  62 W17       29.71R
$$

 *****  OTHER AIRPORT OBSERVATIONS IN OUR AREA  *****

CITY           SKY/WX    TMP DP  RH WIND       PRES   REMARKS
WALHALLA       FAIR      16  16 100 E8        29.68S WCI   5
GRAFTON AIRPOR CLOUDY    18  16  93 E12       29.70F WCI   5
VALLEY CITY AR FOG       27  27 100 CALM      29.61R VSB<1/4
CANDO          CLOUDY    21  21 100 SE7       29.64R WCI  13
CAVALIER APRT  CLOUDY    16  14  93 E13       29.68F WCI   2
GWINNER          N/A     34  30  86 NW8       29.59R
ROLLA          LGT SNOW  21  21 100 S8        29.60R WCI  12
 ***** THE ABOVE OBSERVATIONS ARE NON NWS ARE NOT QUALITY
       CONTROLLED AND MAY MIS-REPORT RAIN FOR SNOW...
$$

  *****  WEATHER ACROSS NORTHERN MINNESOTA  *****

CITY           SKY/WX    TMP DP  RH WIND       PRES   REMARKS
FLAG ISLAND    CLOUDY     0  -6  78 E7        29.78R WCI -13
WARROAD        LGT SNOW   7   3  85 E13       29.77R WCI  -9
ROSEAU         CLOUDY     9   3  78 E14       29.75R WCI  -8
HALLOCK        CLOUDY    16  12  86 E14       29.70S WCI   1
THF RVR FALLS  CLOUDY    16  13  88 E13       29.69R WCI   2
BAUDETTE       CLOUDY     6   2  83 E13       29.76R WCI -10
WASKISH        MOCLDY     9   7  92 E9        29.74R WCI  -5
CROOKSTON      CLOUDY    19  16  86 E10       29.67S WCI   8
STEPHEN NDAWN    N/A     18  12  79 E13         N/A  WCI   4
GREENBUSH NDAW   N/A     10   9  92 E13         N/A  WCI  -5
$$
  *****  WEATHER ACROSS CENTRAL AND WEST MINNESOTA  *****

CITY           SKY/WX    TMP DP  RH WIND       PRES   REMARKS
FOSSTON        CLOUDY    18  16  93 E8        29.66R WCI   7
BEMIDJI        CLOUDY    15  12  90 E7        29.68R WCI   5
PARK RAPIDS    CLOUDY    19  15  84 E6        29.64R WCI  11
ELBOW LAKE     FAIR      27  26  94 SE7       29.61R FOG     WCI  19
WADENA         CLOUDY    19  18  93 E7        29.64R WCI  10
DETROIT LAKES  CLOUDY    23  21  93 E7        29.63R WCI  15
MOORHEAD       FAIR      27  25  93 CALM      29.63S
FERGUS FALLS   MOCLDY    28  27  93 E3        29.64R
MORRIS MN      FAIR      28  27  93 SE6       29.59S WCI  22
STAPLES        CLOUDY    19  18  93 E6        29.65R WCI  11
$$
  *****  WEATHER ELSEWHERE ACROSS MINNESOTA  *****

CITY           SKY/WX    TMP DP  RH WIND       PRES   REMARKS
DULUTH         FLURRIES  15  13  91 E8        29.73R WCI   4
INTRNTL FALLS  MOCLDY     3  -2  79 E8        29.80R WCI -10
ELY            CLOUDY     0  -4  85 CALM      29.77S
CLOQUET        LGT SNOW  16  12  86 E5        29.73R WCI   9
WHEATON        FAIR      27  25  93 E7        29.62R WCI  19
BRAINERD       CLOUDY    21  17  84 NE3       29.68R
HIBBING        FLURRIES  10   6  84 E3        29.74R
ALEXANDRIA     CLOUDY    26  24  92 E9        29.61S WCI  17
SAINT CLOUD    CLOUDY    22  20  92 E5        29.66R WCI  16
MINNEAPOLIS    CLOUDY    31  29  92 E9        29.65F WCI  23
$$

  *****  WEATHER ACROSS SOUTH DAKOTA  *****

CITY           SKY/WX    TMP DP  RH WIND       PRES   REMARKS
SIOUX FALLS    FAIR      28  25  88 SW5       29.63R WCI  23
BROOKINGS      FAIR      33  26  75 W3        29.61R
WATERTOWN      FAIR      31  27  85 W12       29.59R WCI  22
HURON          FAIR      34  26  72 NW9       29.63R
SISSETON         N/A     33  29  85 NW7       29.59R
ABERDEEN       FAIR      35  27  72 NW10      29.62R
MITCHELL       FAIR      39  27  62 W9        29.66R
PIERRE         FAIR      35  24  64 W10       29.66R
MOBRIDGE       FAIR      34  24  67 N7        29.62S
RAPID CITY     FAIR      39  16  39 N13       29.71R
$$

  *****  SOME WEATHER IN NEARBY STATES *****

CITY           SKY/WX    TMP DP  RH WIND       PRES   REMARKS
GLASGOW MT     FAIR      33  27  78 NW14      29.82R WCI  23
GREAT FALLS MT CLOUDY    32  26  78 NE6       29.90R
CHEYENNE WY    FAIR      45   3  17 W25G35    29.75F
SCOTTSBLUFF NE FAIR      36   8  31 NW5       29.74F
OMAHA NE       FAIR      33  22  63 S9        29.73F
DES MOINES IA  FAIR      36  24  62 S10       29.73F
DAVENPORT IA   FAIR      34  22  61 S12       29.83S
CHICAGO IL     CLOUDY    37  21  52 SW16G24   29.84F
EAU CLAIRE WI  LGT SNOW  23  21  92 NE6       29.72R FOG     WCI  16
LA CROSSE WI   CLOUDY    32  28  85 E9        29.70F WCI  24
$$

  *****  SOME NATIONAL WEATHER *****

CITY           SKY/WX    TMP DP  RH WIND       PRES   REMARKS
LA GUARDIA NY  FAIR      27  18  69 W16G25    29.94R WCI  15
RALEIGH NC     FAIR      29  21  72 CALM      30.16R
ATLANTA GA     FAIR      28  23  81 W6        30.22R WCI  22
NEW ORLEANS LA FAIR      46  36  68 NE5       30.25F
OKLAHOMA CITY  FAIR      34  22  61 S10       30.04F
ALBUQUERQUE NM FAIR      28  14  55 SE6       30.08F WCI  22
SALT LAKE CITY CLOUDY    32  28  85 CALM      29.94F FOG
LOS ANGELES CA MOCLDY    60  52  74 W5        29.92F
BOISE ID       CLOUDY    25  24  96 NW7       30.09F WCI  17
SEATTLE WA     CLOUDY    42  40  92 SE8       30.26S
$$

*** WEATHER ACROSS MANITOBA...SASKATCHEWAN AND ONTARIO ***
                ***ONTARIO***

CITY           SKY/WX    TMP DP  RH WIND       PRES   REMARKS
GERALDTON      PTCLDY   -24 -27  83 NW2       29.91R
THUNDER BAY    MOCLDY    -4  -9  77 N7        29.96R WCI -18
SIOUX LOOKOUT  PTCLDY   -13 -18  77 E3        29.88R
TORONTO        PTCLDY    21  10  63 W15       29.83R WCI   8
BIG TROUT LK   CLEAR    -17 -22  76 NW7       29.96R WCI -33
PICKLE LAKE    NOT AVBL
DRYDEN         MOCLDY   -15 -20  76 NE7       29.84R WCI -31
KENORA         CLOUDY    -8 -13  77 E10       29.80R WCI -26
$$
                *** MANITOBA***

CITY           SKY/WX    TMP DP  RH WIND       PRES   REMARKS
BRANDON        LGT SNOW  14  12  92 E10       29.63R WCI   1
DAUPHIN        FLURRIES  12  10  92 SE15      29.65R WCI  -4
ISLAND LAKE    NOT AVBL
PILOT MOUND      N/A     16  14  93 SE12        N/A  WCI   3
THE PAS        FLURRIES   5  -2  72 E7        29.69R WCI  -7
THOMPSON       PTCLDY   -17 -22  76 E3        29.87R
WINNIPEG       FLURRIES   9   5  85 E14       29.74S WCI  -8
LYNN LAKE      FLURRIES -11 -17  77 SE6       29.74R WCI -25
CHURCHILL      CLOUDY   -22 -29  69 W6        30.00R WCI -38
GILLAM         CLEAR    -29 -36  68 CALM      29.98R
$$
                ***SASKATCHEWAN***

CITY           SKY/WX    TMP DP  RH WIND       PRES   REMARKS
ESTEVAN        CLOUDY    34  28  80 W15       29.65R WCI  24
KINDERSLEY     CLEAR     25  18  74 NW10      29.76S WCI  15
LLOYDMINSTER   CLEAR     27  19  74 W18       29.68S WCI  13
PRINCE ALBERT  NOT AVBL
REGINA         CLOUDY    34  30  86 NW17G23   29.67R WCI  23
YORKTON        CLOUDY    23  21  93 NW8       29.59R WCI  14
N. BATTLEFORD  CLEAR     30  21  69 W12G17    29.71R WCI  21
LA RONGE       FLURRIES   7   1  78 E3        29.63S
SASKATOON      PTCLDY    32  27  80 NW13G18   29.69R WCI  22
SWIFT CURRENT  CLEAR     25  19  80 W13G18    29.76S WCI  13
$$
NOTE: THESE ARE AUTOMATED STATIONS WITH LIMITED QUALITY CONTROL
      "FAIR" INDICATES FEW OR NO CLOUDS BELOW 12,000 FEET WITH NO
      SIGNIFICANT WEATHER AND/OR OBSTRUCTIONS TO VISIBILITY.
      SKY/WX - SKY CONDITION AND SIGNIFICANT WEATHER.
      TMP - AIR TEMPERATURE.    DP   - DEWPOINT TEMPERATURE.
      RH  - RELATIVE HUMIDITY.  PRES - PRESSURE.
      HX  - HEAT INDEX.         WCI  - WIND CHILL INDEX.
$




USA.gov is the U.S. government's official web portal to all federal, state and local government web resources and services.